Location: Moena
(46.3667°N, 11.6500°E)
Time: 10:28:30
(UTC+00:00)

GP-B - Pass Details

Date: 24 June 2021
Orbit: 631 x 635 km, 89.8° (Epoch: 28 July)

Event Time Altitude Azimuth Distance (km) Brightness Sun altitude
Rises 21:30:30 0° 19° (NNE) 2,942 7.3 -16.3°
Reaches altitude 10° 21:33:49 10° 46° (NE) 2,026 5.9 -16.5°
Maximum altitude 21:36:06 14° 77° (ENE) 1,783 5.3 -16.7°
Enters shadow 21:37:36 12° 98° (E) 1,889 5.2 -16.8°
